[[{"header":{"parameterUnit":"m.s-1","parameterCategory":1,"la1":30.2991,"la2":30.254,"lo1":-89.0895,"lo2":-89.0444,"dy":0.0017,"dx":0.0017,"nx":28,"ny":28,"refTime":"2024-12-17T09:00:00:Z","depth":0,"parameterNumber":2,"parameterNumberName":"U-component_of_WINDS"},"data":[0,0,0,0,0,0,0,0,0,0,0,0,0,0,0,0,0,0,0,0,0,0,0,0,0,0,0,0,0,0,0,0,0,0,0,0,0,0,0,0,0,0,0,0,0,0,0,0,0,0,0,0,0,0,0,0,0,0,0.0527,0.0528,0,0.0627,0.0628,0.0629,0.0703,0.0704,0.0705,0.0705,0.0807,0.0809,0.0811,0,0,0,0,0,0,0,0,0,0,0,0,0,0.0401,0.0403,0.0527,0.0528,0.053,0.0626,0.0628,0.0629,0.0703,0.0704,0.0705,0.0706,0.0806,0.0808,0.0811,0,0,0,0,0,0,0,0,0,0,0,0,0,0.0474,0.0404,0.0527,0.0578,0.0584,0.0626,0.0628,0.0629,0.0703,0.0704,0.0705,0.0706,0.0805,0.0808,0.0811,0.081,0,0,0.0821,0.0822,0,0,0,0,0,0,0,0,0.0469,0.0478,0.057,0.0575,0.0581,0.0654,0.0621,0.069,0.0703,0.0658,0.0705,0.0706,0.0755,0.0762,0.0779,0.0815,0.0819,0.0821,0.0823,0.0824,0.0825,0,0,0,0,0,0,0,0.0464,0.0474,0.0567,0.0571,0.0578,0.0596,0.0608,0.0634,0.0699,0.0662,0.0667,0.0678,0.0758,0.0775,0.0781,0.0821,0.0821,0.0824,0.0825,0.0827,0.086,0.0859,0,0,0,0,0,0,0.0451,0.047,0.0563,0.057,0.0527,0.0598,0.061,0.0629,0.0699,0.0711,0.0677,0.0681,0.077,0.0778,0.0785,0.0788,0.0824,0.0827,0.0829,0.0861,0.086,0.0859,0,0,0,0,0,0,0.0448,0.0459,0.0559,0.0521,0.0535,0.0599,0.0619,0.0631,0.0648,0.0711,0.0723,0.0683,0.0771,0.0781,0.0803,0.0792,0.0828,0.0831,0.0863,0.0861,0.086,0.0793,0,0,0,0,0,0,0.0444,0.0458,0.0458,0.0521,0.0537,0.0576,0.0619,0.0632,0.0653,0.0659,0.0719,0.073,0.0772,0.0798,0.0806,0.0797,0.0834,0.0864,0.0862,0.086,0.0797,0.079,0.0784,0,0,0,0,0,0.044,0.0435,0.0458,0.0468,0.0539,0.0575,0.0584,0.0633,0.0652,0.0653,0.0693,0.0728,0.0793,0.08,0.081,0.0801,0.0865,0.0862,0.086,0.08,0.0791,0.0784,0,0,0,0,0,0,0.037,0.0445,0.047,0.0486,0.0523,0.0587,0.059,0.0622,0.0655,0.066,0.0718,0.0731,0.0747,0.0777,0.0784,0.0804,0.0833,0.0833,0.0783,0.0776,0.077,0.0761,0.0836,0,0,0,0,0,0.0356,0.0379,0.0443,0.0451,0.0469,0.0526,0.0543,0.0577,0.0619,0.0635,0.0677,0.0715,0.0744,0.0762,0.0792,0.0802,0.0815,0.0801,0.0794,0.0789,0.0787,0.0794,0.0788,0.0852,0.0852,0.0852,0,0,0.0328,0.0372,0.0383,0.0438,0.0471,0.0493,0.0539,0.056,0.0577,0.0638,0.0661,0.0694,0.0741,0.0756,0.0765,0.0781,0.0773,0.0786,0.0781,0.0783,0.0791,0.0785,0.0779,0.0851,0.0851,0.0851,0,0,0.0288,0.0324,0.0334,0.0366,0.0416,0.0454,0.0456,0.0515,0.0539,0.0563,0.0609,0.063,0.0679,0.071,0.0732,0.0704,0.0737,0.0712,0.0678,0.0683,0.0678,0.0674,0.0663,0.0658,0.0711,0.0711,0.0711,0,0.0247,0.0283,0.0335,0.0354,0.0376,0.0433,0.0443,0.0472,0.0528,0.0542,0.056,0.0622,0.0658,0.0681,0.0673,0.069,0.0694,0.0705,0.0675,0.0671,0.0668,0.0658,0.0653,0.0707,0.0708,0.0708,0.0708,0,0.0229,0.0253,0.0255,0.0308,0.0331,0.0345,0.0399,0.0416,0.0449,0.0484,0.0508,0.0553,0.0593,0.0601,0.0633,0.0628,0.0637,0.0664,0.0694,0.0657,0.0649,0.0645,0.0702,0.0704,0.0705,0.0705,0,0,0.0147,0.0229,0.0229,0.0253,0.0312,0.0331,0.0348,0.0387,0.0399,0.0437,0.0452,0.0491,0.0517,0.0542,0.0578,0.0582,0.0556,0.0609,0.0611,0.0596,0.0552,0.053,0.0525,0.0578,0.0578,0.0578,0.0548,0,0.0116,0.0148,0.0196,0.0213,0.0235,0.0289,0.0303,0.034,0.0375,0.0398,0.0436,0.0463,0.0495,0.051,0.0517,0.0557,0.0547,0.056,0.0592,0.0592,0.0577,0.0521,0.0498,0.0468,0.0545,0.0544,0.0544,0,0.0083,0.0117,0.0135,0.0192,0.0203,0.0215,0.0254,0.0276,0.0319,0.0344,0.0371,0.041,0.043,0.0458,0.0486,0.0494,0.051,0.0531,0.0531,0.0535,0.0565,0.0521,0.0459,0.0454,0.0539,0.054,0.054,0,0.0019,0.007,0.0088,0.0107,0.0173,0.018,0.0208,0.0253,0.0273,0.0307,0.0321,0.0357,0.0376,0.0403,0.045,0.0467,0.0472,0.0505,0.0492,0.0491,0.049,0.0489,0.0428,0.0502,0.0503,0.0503,0.0503,0,-0.0022,-0.0013,0.006,0.007,0.0082,0.0137,0.0147,0.018,0.0219,0.0236,0.0286,0.0301,0.0363,0.0386,0.0423,0.044,0.0449,0.0468,0.0478,0.0463,0.046,0.0473,0.0476,0.0501,0.0502,0.0502,0.0502,0,-0.0091,-0.0042,-0.002,0.0041,0.0057,0.0062,0.0115,0.0127,0.0164,0.0186,0.0194,0.0252,0.0281,0.0331,0.0375,0.04,0.0409,0.0426,0.0394,0.04,0.0384,0.0384,0.0328,0.0322,0.0401,0.04,0.04,0,-0.0122,-0.0114,-0.0052,-0.0036,-0.001,0.0014,0.0034,0.0089,0.0108,0.0158,0.0164,0.0197,0.0226,0.027,0.0316,0.035,0.0367,0.0345,0.0372,0.0357,0.0365,0.0363,0.0364,0.0338,0.0337,0.0336,0.0335,0,-0.0181,-0.0157,-0.013,-0.0094,-0.0071,-0.0039,-0.0006,0.0004,0.0066,0.0085,0.0115,0.0138,0.0182,0.0214,0.0254,0.0283,0.0319,0.0327,0.0325,0.0309,0.029,0.0299,0.0375,0.0327,0.0328,0.0329,0.0329,0.0329,-0.0233,-0.0223,-0.0179,-0.015,-0.0119,-0.0089,-0.0075,-0.0036,-0.001,0.0031,0.0061,0.0089,0.0132,0.0189,0.0216,0.0239,0.0255,0.0253,0.0253,0.0251,0.0245,0.0287,0.0246,0.0247,0.0247,0.0247,0.0247,0,-0.0291,-0.026,-0.0233,-0.0188,-0.0166,-0.0133,-0.0094,-0.0078,-0.0054,-0.0017,0.0011,0.0045,0.0076,0.0124,0.0159,0.0168,0.0185,0.0175,0.0174,0.018,0.0229,0.0226,0.016,0.016,0.016,0.016,0.016,0.016,-0.0319,-0.0302,-0.0273,-0.024,-0.0208,-0.0181,-0.0162,-0.0134,-0.0104,-0.0068,-0.0042,-0.0011,0.003,0.0069,0.0098,0.0112,0.0122,0.0106,0.0124,0.0168,0.0176,0.0184,0.0182,0.0108,0.0108,0.0073,0.0073,0.0073]},{"header":{"parameterUnit":"m.s-1","parameterCategory":1,"la1":30.2991,"la2":30.254,"lo1":-89.0895,"lo2":-89.0444,"dy":0.0017,"dx":0.0017,"nx":28,"ny":28,"refTime":"2024-12-17T09:00:00:Z","depth":0,"parameterNumber":3,"parameterNumberName":"V-component_of_WINDS"},"data":[0,0,0,0,0,0,0,0,0,0,0,0,0,0,0,0,0,0,0,0,0,0,0,0,0,0,0,0,0,0,0,0,0,0,0,0,0,0,0,0,0,0,0,0,0,0,0,0,0,0,0,0,0,0,0,0,0,0,-0.8822,-0.8822,0,-0.882,-0.882,-0.882,-0.8793,-0.8792,-0.8792,-0.8791,-0.8789,-0.879,-0.879,0,0,0,0,0,0,0,0,0,0,0,0,0,-0.8802,-0.8802,-0.8822,-0.8822,-0.8822,-0.882,-0.882,-0.882,-0.8793,-0.8792,-0.8791,-0.8791,-0.8789,-0.8789,-0.879,0,0,0,0,0,0,0,0,0,0,0,0,0,-0.8806,-0.8802,-0.8822,-0.8808,-0.8807,-0.882,-0.882,-0.882,-0.8793,-0.8792,-0.8791,-0.879,-0.8789,-0.8789,-0.879,-0.8817,0,0,-0.8793,-0.8793,0,0,0,0,0,0,0,0,-0.8806,-0.8807,-0.881,-0.8809,-0.8808,-0.8806,-0.8812,-0.8819,-0.8794,-0.8799,-0.8791,-0.879,-0.8795,-0.8796,-0.8798,-0.8817,-0.8817,-0.8793,-0.8794,-0.8794,-0.8794,0,0,0,0,0,0,0,-0.8806,-0.8807,-0.8821,-0.881,-0.8809,-0.8802,-0.8802,-0.8814,-0.8803,-0.8798,-0.8796,-0.8796,-0.8795,-0.8797,-0.8797,-0.8816,-0.8793,-0.8794,-0.8794,-0.8795,-0.8857,-0.8858,0,0,0,0,0,0,-0.8808,-0.8807,-0.8821,-0.8821,-0.8804,-0.8803,-0.8803,-0.8808,-0.8803,-0.8801,-0.8797,-0.8795,-0.8796,-0.8796,-0.8797,-0.8828,-0.8794,-0.8795,-0.8795,-0.8856,-0.8858,-0.8859,0,0,0,0,0,0,-0.8807,-0.8809,-0.8822,-0.8814,-0.8815,-0.8805,-0.881,-0.8808,-0.881,-0.8802,-0.88,-0.8801,-0.8795,-0.8796,-0.8812,-0.8828,-0.8795,-0.8796,-0.8855,-0.8857,-0.8858,-0.889,0,0,0,0,0,0,-0.8807,-0.8809,-0.8819,-0.8814,-0.8815,-0.8837,-0.8811,-0.8809,-0.8812,-0.8809,-0.8805,-0.8804,-0.8794,-0.8811,-0.8813,-0.8828,-0.8797,-0.8854,-0.8856,-0.8858,-0.8887,-0.8892,-0.8897,0,0,0,0,0,-0.8806,-0.8828,-0.882,-0.8822,-0.8827,-0.8838,-0.8838,-0.8827,-0.8813,-0.8823,-0.8818,-0.8804,-0.8826,-0.8813,-0.8815,-0.8831,-0.8853,-0.8855,-0.8858,-0.8885,-0.8891,-0.8897,0,0,0,0,0,0,-0.8834,-0.8827,-0.8818,-0.8839,-0.8839,-0.8833,-0.8845,-0.8834,-0.8838,-0.8835,-0.882,-0.882,-0.8838,-0.8836,-0.8822,-0.8856,-0.8837,-0.884,-0.8857,-0.8863,-0.8867,-0.8867,-0.8797,0,0,0,0,0,-0.8843,-0.8852,-0.8845,-0.8864,-0.8865,-0.8855,-0.8859,-0.885,-0.885,-0.885,-0.8846,-0.8846,-0.8853,-0.8858,-0.8863,-0.8887,-0.8886,-0.8899,-0.8903,-0.8907,-0.891,-0.8923,-0.8928,-0.8867,-0.8867,-0.8867,0,0,-0.8861,-0.8858,-0.8865,-0.887,-0.8869,-0.8878,-0.8855,-0.8866,-0.8873,-0.8851,-0.8867,-0.8864,-0.8863,-0.8883,-0.8892,-0.8882,-0.8927,-0.8911,-0.8914,-0.8914,-0.8926,-0.8932,-0.8937,-0.8869,-0.8869,-0.8868,0,0,-0.8899,-0.8898,-0.8913,-0.8913,-0.8913,-0.8906,-0.891,-0.8906,-0.8903,-0.8918,-0.8902,-0.891,-0.8922,-0.8923,-0.8924,-0.8963,-0.895,-0.8965,-0.8989,-0.9002,-0.9007,-0.9011,-0.9025,-0.903,-0.8968,-0.8968,-0.8968,0,-0.8921,-0.8935,-0.8923,-0.8935,-0.8938,-0.8919,-0.8935,-0.8936,-0.8937,-0.8939,-0.8928,-0.8943,-0.8941,-0.8961,-0.8971,-0.8973,-0.8977,-0.8965,-0.9007,-0.9011,-0.9015,-0.9028,-0.9033,-0.897,-0.897,-0.897,-0.8969,0,-0.8963,-0.8973,-0.8986,-0.8988,-0.8992,-0.9006,-0.8996,-0.9002,-0.8993,-0.8988,-0.9003,-0.9001,-0.9006,-0.901,-0.9001,-0.9029,-0.9023,-0.901,-0.899,-0.9023,-0.9035,-0.904,-0.8973,-0.8972,-0.8971,-0.8971,0,0,-0.9018,-0.9014,-0.9018,-0.9019,-0.9017,-0.9025,-0.9038,-0.9043,-0.9049,-0.905,-0.9061,-0.9072,-0.906,-0.9062,-0.9053,-0.9064,-0.9096,-0.905,-0.905,-0.9059,-0.9126,-0.9136,-0.9142,-0.9087,-0.9088,-0.9089,-0.9126,0,-0.9055,-0.9077,-0.9067,-0.9091,-0.91,-0.9082,-0.9094,-0.9094,-0.909,-0.9097,-0.9092,-0.91,-0.9083,-0.9084,-0.9095,-0.909,-0.9109,-0.9087,-0.9097,-0.9098,-0.9098,-0.9148,-0.9159,-0.9194,-0.9131,-0.9132,-0.9132,0,-0.91,-0.9104,-0.9129,-0.9126,-0.9129,-0.914,-0.9144,-0.9151,-0.9151,-0.9147,-0.915,-0.9139,-0.9152,-0.9132,-0.915,-0.9135,-0.9139,-0.9137,-0.9138,-0.9139,-0.9117,-0.9151,-0.9205,-0.9211,-0.914,-0.9139,-0.9139,0,-0.9138,-0.9149,-0.9166,-0.9167,-0.9164,-0.9172,-0.9171,-0.917,-0.9174,-0.9178,-0.918,-0.9185,-0.9188,-0.9192,-0.9183,-0.9169,-0.9202,-0.9182,-0.9199,-0.92,-0.9207,-0.9207,-0.9263,-0.9209,-0.9209,-0.9209,-0.9209,0,-0.918,-0.9196,-0.9183,-0.9193,-0.921,-0.9199,-0.9216,-0.9213,-0.9213,-0.9222,-0.9207,-0.9216,-0.9203,-0.9211,-0.9204,-0.922,-0.9221,-0.9218,-0.9216,-0.922,-0.922,-0.9222,-0.9219,-0.9211,-0.921,-0.921,-0.921,0,-0.9225,-0.9217,-0.9234,-0.923,-0.9229,-0.9242,-0.9238,-0.9248,-0.9242,-0.9254,-0.9257,-0.9248,-0.9257,-0.9248,-0.9256,-0.9251,-0.9273,-0.9267,-0.9273,-0.9271,-0.9289,-0.9288,-0.9349,-0.9357,-0.9298,-0.9299,-0.9299,0,-0.9252,-0.9264,-0.9261,-0.9267,-0.9267,-0.9275,-0.928,-0.9268,-0.9273,-0.9274,-0.9284,-0.9291,-0.9296,-0.9311,-0.9305,-0.9311,-0.9306,-0.9327,-0.9307,-0.931,-0.9306,-0.9306,-0.9307,-0.9331,-0.9332,-0.9332,-0.9333,0,-0.9301,-0.9297,-0.9304,-0.9309,-0.9315,-0.9318,-0.9321,-0.9326,-0.9314,-0.9321,-0.9329,-0.9334,-0.9342,-0.9349,-0.9354,-0.9353,-0.9341,-0.9339,-0.9344,-0.9347,-0.9351,-0.9349,-0.9284,-0.9338,-0.9337,-0.9337,-0.9337,-0.9337,-0.9338,-0.9348,-0.9348,-0.9356,-0.9357,-0.936,-0.9369,-0.9365,-0.9372,-0.9378,-0.9371,-0.9381,-0.9382,-0.9387,-0.9387,-0.9395,-0.9386,-0.9393,-0.9394,-0.9396,-0.9399,-0.9349,-0.9396,-0.9396,-0.9396,-0.9396,-0.9396,0,-0.9387,-0.9386,-0.9394,-0.9398,-0.9404,-0.9393,-0.9395,-0.9401,-0.9411,-0.9412,-0.9418,-0.9428,-0.9436,-0.9431,-0.9438,-0.9445,-0.944,-0.9447,-0.9447,-0.9447,-0.9406,-0.9402,-0.9451,-0.9451,-0.9451,-0.9451,-0.9451,-0.9451,-0.9413,-0.9429,-0.9425,-0.9442,-0.9441,-0.9452,-0.9454,-0.9457,-0.9458,-0.947,-0.9476,-0.9473,-0.9472,-0.9478,-0.9485,-0.9483,-0.9487,-0.9496,-0.9492,-0.9455,-0.9449,-0.9444,-0.944,-0.9497,-0.9497,-0.9532,-0.9532,-0.9533]}]]